Location: Cutler
(25.6150°N, 80.3110°W)
Time: 22:09:04
(UTC-05:00)

Tiangong 1 - Pass Details

Date: 17 November 2017
Orbit: 285 x 309 km, 42.8° (Epoch: 18 November)

Event Time Altitude Azimuth Distance (km) Brightness Sun altitude
Exits shadow 05:28:10 20° 200° (SSW) 732 2.4 -16.4°
Drops below altitude 10° 05:29:39 10° 166° (SSE) 1,128 3.8 -16.1°
Sets 05:31:48 0° 150° (SSE) 1,948 5.3 -15.6°
